DRAGON CRS-25 DEB (53584 NORAD) Tracking and Keplerian Element Data

This shows tracking and keplerian element data for the satellite.

Feedback or suggestion? Click here.




ElementValue
Catalog53584
NameDRAGON CRS-25 DEB
Epoch Orbit725
Epoch Day242.34354296
Epoch Year2022
RAAN324.555
Inclination51.623
Eccentricity0.0044505
Argument of Perigee221.6289
Mean Anonmoly257.8752
Mean Motion16.30768747
Decay Rate0.05020048
L11 53584U 22081B 22242.34354296 .05020048 11949-4 70310-3 0 9997
L22 53584 51.6230 324.5550 0044505 221.6289 257.8752 16.30768747 7255



Live tracking and technical data element details for DRAGON CRS-25 DEB (NORAD 53584). DRAGON CRS-25 DEB can be tracked NOW for your location showing map with azimuth and elevation plus other details from your city location.







IsCatalogInMostPopularTable: catalog: 53584, numindb: 5
Update: records affected: 1



GetName: 53584 DRAGON CRS-25 DEB

Hit Count: updated at: Thu, 08 Dec 2022 09:54:21 GMT